Starlink 35823

operational
NORAD ID: 66360 Int'l Des: 2025-254 Owner: SPXS Country: US Constellation: starlink
LEOCIRCULAR

About Starlink 35823

Description loading...

Live Position

Loading 3D Globe...

Upcoming Passes

Altitude History

Altitude vs Time

uPlot chart will show altitude changes over time

Two-Line Element Set

1 66360U 25254N 26047.22528256 .00027856 00000-0 94995-3 0 9997
2 66360 53.1602 331.8528 0003184 30.6409 329.4777 15.30168303 15698
Epoch: Feb 16, 2026 • Age: 18 hours

Current Status

Altitude 480.2 km
Velocity 7.63 km/s
Sub-Earth Point 52.65°N, 86.14°W
Launch Date Nov 6, 2025
Age 0.2 years
Type internet

Technical Details

Classification Payload
Mass 575.00 kg
Dry Mass 530.00 kg
Total Mass 575.00 kg
Length 0.30 m
Diameter 4.10 m
Span 29.00 m
Shape Box + pan
Manufacturer SPXS
Bus Type Starlink V2MO
Phase Status In Orbit
Owner/State SPXS/US

Large Constellations

Loading constellations...